Oxford, NC

7:23 PM EST on November 12, 2019 (GMT -0500)
Henderson-Oxford

Weather History for KHNZ - June, 2019

Change the Weather History Date:

Monday, June 3, 2019

  Actual Average (KTDF) Record (KTDF)
Temperature  
Mean Temperature 68 °F -  
Max Temperature 78 °F 83 °F 94 °F (1989)
Min Temperature 54 °F 58 °F 46 °F (2012)
Cooling Degree Days 2    
Growing Degree Days 18 (Base 50)    
Moisture  
Dew Point 52 °F    
Average Humidity 60    
Maximum Humidity 97    
Minimum Humidity 30    
Precipitation  
Precipitation 0.01 in - - ()
Sea Level Pressure  
Sea Level Pressure 29.97 in    
Wind  
Wind Speed 4 mph (NNW)    
Max Wind Speed 12 mph    
Max Gust Speed 18 mph    
Visibility 10 miles    
Events      
Averages and records for this station are not official NWS values.
T = Trace of Precipitation, MM = Missing Value Source: NWS Daily Summary

Daily Weather History Graph

Daily Weather History Graph

Search for Another Location

Airport or City:

Astronomy

Jun. 03, 2019 Rise Set
Actual Time 5:57 AM EDT 8:27 PM EDT
Civil Twilight 5:27 AM EDT 8:57 PM EDT
Nautical Twilight 4:50 AM EDT 9:34 PM EDT
Astronomical Twilight 4:09 AM EDT 10:16 PM EDT
Moon 6:14 AM EDT (6/3) 8:51 PM EDT (6/3)
Length of Visible Light 15h 30m
Length of Day
14h 30m
New Moon, 0% of the Moon is Illuminated
Jun 3
New Moon
Jun 10
First Quarter
Jun 17
Full
Jun 25
Last Quarter
Jul 2
New

Hourly Weather History & Observations

Time (EDT) Temp. Dew Point Humidity Pressure Visibility Wind Dir Wind Speed Gust Speed Precip Events Conditions
12:00 AM 69.1 °F 58.5 °F 69% 29.85 in 10.0 mi Calm Calm - N/A   Scattered Clouds
12:40 AM 64.4 °F 61.7 °F 91% 29.85 in 10.0 mi Calm Calm - 0.05 in   Scattered Clouds
1:00 AM 63.9 °F 61.7 °F 93% 29.84 in 10.0 mi South 3.5 mph - N/A   Scattered Clouds
1:20 AM 63.3 °F 61.3 °F 93% 29.84 in 10.0 mi South 4.6 mph - N/A   Scattered Clouds
1:40 AM 63.0 °F 61.3 °F 94% 29.84 in 10.0 mi WSW 5.8 mph - N/A   Clear
2:20 AM 61.9 °F 61.0 °F 97% 29.84 in 3.0 mi Calm Calm - N/A   Clear
2:40 AM 61.9 °F 61.0 °F 97% 29.84 in 2.5 mi Calm Calm - N/A   Clear
3:00 AM 61.7 °F 60.8 °F 97% 29.85 in 5.0 mi Calm Calm - N/A   Scattered Clouds
3:20 AM 62.1 °F 60.8 °F 96% 29.85 in 10.0 mi West 3.5 mph - N/A   Scattered Clouds
3:40 AM 63.0 °F 60.1 °F 90% 29.85 in 10.0 mi WNW 4.6 mph - N/A   Clear
4:00 AM 63.3 °F 59.4 °F 87% 29.86 in 10.0 mi NNW 3.5 mph - N/A   Clear
4:20 AM 63.0 °F 58.8 °F 86% 29.86 in 10.0 mi Calm Calm - N/A   Clear
4:40 AM 62.6 °F 58.5 °F 86% 29.87 in 10.0 mi NNW 3.5 mph - N/A   Clear
5:00 AM 62.2 °F 58.6 °F 88% 29.88 in 10.0 mi North 3.5 mph - N/A   Clear
5:20 AM 61.7 °F 58.5 °F 89% 29.89 in 10.0 mi North 5.8 mph - N/A   Clear
5:40 AM 61.5 °F 58.5 °F 90% 29.89 in 10.0 mi North 5.8 mph - 0.01 in   Clear
6:00 AM 61.2 °F 58.3 °F 90% 29.91 in 10.0 mi North 4.6 mph - N/A   Clear
6:20 AM 61.0 °F 58.3 °F 91% 29.91 in 10.0 mi North 4.6 mph - N/A   Clear
6:40 AM 61.0 °F 58.3 °F 91% 29.92 in 10.0 mi North 3.5 mph - N/A   Clear
7:00 AM 61.7 °F 58.6 °F 90% 29.93 in 10.0 mi North 4.6 mph - N/A   Clear
7:20 AM 62.6 °F 59.0 °F 88% 29.94 in 10.0 mi North 5.8 mph - N/A   Clear
7:40 AM 63.5 °F 58.6 °F 84% 29.95 in 10.0 mi NNE 5.8 mph - N/A   Clear
8:00 AM 64.8 °F 58.3 °F 79% 29.95 in 10.0 mi NNE 5.8 mph - N/A   Clear
8:20 AM 65.7 °F 57.0 °F 74% 29.96 in 10.0 mi NNE 6.9 mph - N/A   Clear
8:40 AM 66.2 °F 52.0 °F 60% 29.98 in 10.0 mi North 5.8 mph - N/A   Clear
9:00 AM 66.7 °F 47.5 °F 50% 29.99 in 10.0 mi NNE 9.2 mph 17.3 mph N/A   Clear
9:20 AM 68.4 °F 48.6 °F 49% 29.99 in 10.0 mi NNE 5.8 mph - N/A   Clear
9:40 AM 69.1 °F 50.2 °F 51% 30.00 in 10.0 mi North 5.8 mph - N/A   Clear
10:00 AM 69.6 °F 51.8 °F 53% 29.99 in 10.0 mi NE 5.8 mph - N/A   Clear
10:20 AM 70.9 °F 52.7 °F 53% 29.99 in 10.0 mi North 8.1 mph - N/A   Clear
10:40 AM 71.2 °F 51.1 °F 49% 29.99 in 10.0 mi North 9.2 mph 17.3 mph N/A   Clear
11:00 AM 71.8 °F 50.5 °F 47% 29.99 in 10.0 mi NNE 5.8 mph - N/A   Clear
11:20 AM 72.7 °F 49.6 °F 44% 30.00 in 10.0 mi NE 4.6 mph - N/A   Clear
11:40 AM 73.6 °F 50.7 °F 45% 30.01 in 10.0 mi NW 5.8 mph - N/A   Clear
12:00 PM 74.3 °F 50.9 °F 44% 30.01 in 10.0 mi NNW 9.2 mph - N/A   Clear
12:20 PM 74.7 °F 50.5 °F 43% 30.02 in 10.0 mi NNE 6.9 mph 18.4 mph N/A   Clear
12:40 PM 74.1 °F 48.7 °F 41% 30.01 in 10.0 mi WNW 9.2 mph - N/A   Clear
1:00 PM 75.9 °F 48.6 °F 38% 30.01 in 10.0 mi NNW 10.4 mph 17.3 mph N/A   Clear
1:20 PM 75.9 °F 47.8 °F 37% 30.02 in 10.0 mi North 10.4 mph - N/A   Scattered Clouds
1:40 PM 75.7 °F 48.7 °F 38% 30.01 in 10.0 mi North 4.6 mph - N/A   Clear
2:00 PM 76.6 °F 49.3 °F 38% 30.01 in 10.0 mi NNE 5.8 mph - N/A   Clear
2:20 PM 75.6 °F 49.5 °F 40% 30.01 in 10.0 mi North 5.8 mph - N/A   Scattered Clouds
2:40 PM 75.7 °F 49.1 °F 39% 30.00 in 10.0 mi North 6.9 mph - N/A   Scattered Clouds
3:20 PM 76.8 °F 49.1 °F 38% 30.00 in 10.0 mi West 5.8 mph - N/A   Clear
3:40 PM 78.3 °F 50.0 °F 37% 30.00 in 10.0 mi Calm Calm - N/A   Scattered Clouds
4:00 PM 75.7 °F 48.9 °F 39% 30.00 in 10.0 mi Calm Calm - N/A   Scattered Clouds
4:20 PM 77.7 °F 48.9 °F 36% 30.00 in 10.0 mi NW 6.9 mph - N/A   Scattered Clouds
4:40 PM 77.7 °F 46.0 °F 33% 29.99 in 10.0 mi WNW 11.5 mph - N/A   Clear
5:00 PM 77.2 °F 45.9 °F 33% 29.99 in 10.0 mi WNW 10.4 mph - N/A   Clear
5:20 PM 77.0 °F 45.7 °F 33% 29.99 in 10.0 mi NW 6.9 mph - N/A   Clear
5:40 PM 76.8 °F 45.5 °F 33% 30.00 in 10.0 mi NW 5.8 mph - N/A   Clear
6:00 PM 76.5 °F 43.2 °F 30% 30.00 in 10.0 mi NW 4.6 mph - N/A   Clear
6:20 PM 75.6 °F 45.5 °F 34% 30.01 in 10.0 mi NW 6.9 mph - N/A   Clear
6:40 PM 74.8 °F 46.0 °F 36% 30.01 in 10.0 mi North 5.8 mph - N/A   Clear
7:00 PM 74.3 °F 46.2 °F 37% 30.02 in 10.0 mi NNW 6.9 mph - N/A   Clear
7:20 PM 73.4 °F 45.1 °F 36% 30.02 in 10.0 mi NNW 4.6 mph - N/A   Clear
7:40 PM 72.0 °F 43.7 °F 36% 30.03 in 10.0 mi NNW 4.6 mph - N/A   Clear
8:00 PM 70.3 °F 41.7 °F 35% 30.04 in 10.0 mi NNW 3.5 mph - N/A   Clear
8:20 PM 68.5 °F 41.2 °F 37% 30.04 in 10.0 mi NW 3.5 mph - N/A   Clear
8:40 PM 67.6 °F 41.2 °F 38% 30.05 in 10.0 mi Calm Calm - N/A   Clear
9:00 PM 66.4 °F 41.9 °F 41% 30.05 in 10.0 mi Calm Calm - N/A   Clear
9:20 PM 65.8 °F 42.1 °F 42% 30.05 in 10.0 mi Calm Calm - N/A   Clear
9:40 PM 61.3 °F 43.9 °F 53% 30.06 in 10.0 mi Calm Calm - N/A   Clear
10:00 PM 61.3 °F 44.6 °F 54% 30.07 in 10.0 mi Calm Calm - N/A   Clear
10:20 PM 58.1 °F 46.9 °F 66% 30.08 in 10.0 mi Calm Calm - N/A   Clear
10:40 PM 59.0 °F 47.5 °F 66% 30.09 in 10.0 mi Calm Calm - N/A   Clear
11:00 PM 57.0 °F 46.0 °F 67% 30.10 in 10.0 mi Calm Calm - N/A   Clear
11:20 PM 57.9 °F 46.2 °F 65% 30.10 in 10.0 mi North 4.6 mph - N/A   Clear
11:40 PM 54.5 °F 47.3 °F 77% 30.11 in 10.0 mi Calm Calm - N/A   Clear